Regional Weather Roundup
Issued by NWS Sterling, VA

Home | Current Version | Previous Version | Graphics & Text | Print | Product List | Glossary On
Versions: 1 2 3 4 5 6 7 8 9 10 11 12 13 14 15 16 17 18 19 20 21 22 23 24 25 26 27 28 29 30 31 32 33 34 35 36 37 38 39 40 41 42 43 44 45 46 47 48 49
000
ASUS41 KLWX 131910
RWRLWX

REGIONAL WEATHER ROUNDUP
NATIONAL WEATHER SERVICE BALTIMORE MD/WASHINGTON DC
200 PM EST SAT FEB 13 2016

Note: "FAIR" indicates few or no clouds below 12,000 feet
with no significant weather and/or obstructions to visibility.
 TC=TEMPERATURE CELSIUS

 * =Non NWS site. Station does not report precipitation (e.g. rain,
    snow, etc.), thunder, or fog.

DCZ001-MDZ009-015-VAZ040>042-051-053>054-132000-
WASHINGTON METRO

CITY           SKY/WX    TMP DP  RH WIND       PRES   REMARKS
WASHINGTON NAT PTSUNNY   23  -4  30 NW23G35   30.29S WCI   7
DULLES         PTSUNNY   20  -4  34 W26G33    30.29R WCI   2
ANDREWS AFB    MOSUNNY   20  -3  36 NW16G28   30.25R WCI   6
FT BELVOIR     FAIR      22  -6  28 NW20G26   30.29S WCI   7
QUANTICO       PTSUNNY   26  -3  28 NW9G29    30.31S WCI  17
COLLEGE PARK*  CLOUDY    23  -4  30 W17G25    30.27S WCI   9
LEESBURG*      CLOUDY    21   1  42 NW21G26   30.29S WCI   6
MANASSAS*      MOSUNNY   21  -2  35 NW21G30   30.30S WCI   6
GAITHERSBURG*  PTSUNNY   18  -6  35 W23G32    30.28R WCI   0

$$

MDZ006>007-011-014-132000-
BALTIMORE METRO

CITY           SKY/WX    TMP DP  RH WIND       PRES   REMARKS
BWI AIRPORT    PTSUNNY   21  -5  31 NW17G29   30.25S WCI   7
MD SCIENCE CTR   N/A     20  -6  31 MISG      30.21F
MARTIN STATE   PTSUNNY   21   0  39 NW24G31   30.26R WCI   4
ANNAPOLIS      CLOUDY    21   0  39 NW18G28   30.26R WCI   6
FORT MEADE*    CLOUDY    25  -2  30 NW16G25   30.28S WCI  12

$$

MDZ012-015-019>023-132000-
MARYLAND EASTERN SHORE

CITY           SKY/WX    TMP DP  RH WIND       PRES   REMARKS
OCEAN CITY     SUNNY     24  -1  33 NW16G29   30.18R WCI  11
SALISBURY      MOSUNNY   25  -2  31 W20G32    30.20R WCI  11
BAY BRIDGE AP*   N/A     23   0  36 NW21G35   30.25S WCI   8
CAMBRIDGE*     MOSUNNY   23  -2  33 NW16G30   30.23S WCI  10
EASTON*        MOSUNNY   23   0  36 NW22G32   30.27R WCI   8

$$

MDZ017>025-132000-
SOUTHERN MARYLAND

CITY           SKY/WX    TMP DP  RH WIND       PRES   REMARKS
PATUXENT RIVER MOSUNNY   24  -3  30 NW26G36   30.25R WCI   8
ST INIGOES     MOSUNNY   25  -1  32 W24G35    30.24S WCI   9
LEONARDTOWN*   NOT AVBL

$$

MDZ003>005-132000-
NORTH CENTRAL MARYLAND

CITY           SKY/WX    TMP DP  RH WIND       PRES   REMARKS
FREDERICK*     CLOUDY    18   1  49 NW24G31   30.30S WCI   0
HAGERSTOWN APT CLOUDY    16  -3  43 NW20      30.24S WCI  -1
WESTMINSTER*   LGT SNOW  16   7  67 NW15G25   30.21R WCI   1

$$

MDZ501>502-132000-
WESTERN MARYLAND

CITY           SKY/WX    TMP DP  RH WIND       PRES   REMARKS
OAKLAND*       NOT AVBL
CUMBERLAND*    NOT AVBL

$$

VAZ025>031-132000-
SHENANDOAH VALLEY

CITY           SKY/WX    TMP DP  RH WIND       PRES   REMARKS
WINCHESTER*    PTSUNNY   19  -4  35 NW23G32   30.27R WCI   2
FRONT ROYAL*   FAIR      19  -4  35 NW18G25   30.26R WCI   4
LURAY*         FAIR      21  -4  33 NW20G30   30.26S WCI   6
NEW MARKET*    MOCLDY    19  -8  30 NW12G29   30.27R WCI   7
STAUNTON*      FAIR      26  -8  23 NW20G28   30.24S WCI  12
WAYNESBORO*    FAIR      21 -15  19 NW9G24    30.20R WCI  11

$$

WVZ021-048>050-054>055-132000-
EASTERN WEST VIRGINIA PANHANDLE

CITY           SKY/WX    TMP DP  RH WIND       PRES   REMARKS
MARTINSBURG    CLOUDY    18  -5  36 NW22G32   30.27F WCI   1
PETERSBURG*    PTSUNNY   17  -5  38 NW15G30   30.31F WCI   2

$$

VAZ036>039-050-132000-
CENTRAL FOOTHILLS

CITY           SKY/WX    TMP DP  RH WIND       PRES   REMARKS
CHARLOTTESVILL FAIR      26  -6  24 N13G20    30.25F WCI  15
CULPEPER*      FAIR      23  -6  27 W14G21    30.30R WCI  10
ORANGE*        FAIR      28  -2  26 NW16G22   30.28S WCI  17
GORDONSVILLE*  FAIR      25  -7  23 NW7G18    30.26S
WARRENTON*     PTSUNNY   26   2  35 NW13G21   30.28R WCI  15

$$

VAZ055>057-132000-
NORTH AND CENTRAL PIEDMONT

CITY           SKY/WX    TMP DP  RH WIND       PRES   REMARKS
FREDERICKSBRG* FAIR      26  -2  29 NW20G30   30.27S WCI  13
STAFFORD*      FAIR      25  -8  22 W16G29    30.32R WCI  13

$$

NCZ024-NYZ072-PAZ021-071-VAZ022-071-132000-
OTHER REGIONAL OBSERVATIONS

CITY           SKY/WX    TMP DP  RH WIND       PRES   REMARKS
NEW YORK CITY  SUNNY     18 -11  27 NW17G33   30.08R WCI   3
PHILADELPHIA   CLOUDY    21  -7  28 NW25G35   30.18R WCI   4
PITTSBURGH     FLURRIES  11  -2  56 W26G33    30.32S WCI -10
ROANOKE        FAIR      23  -4  30 W18G28    30.30S WCI   9
RICHMOND       FAIR      29  -3  25 NW24G30   30.25F WCI  15
RALEIGH        MOSUNNY   33  -1  23 W15G22    30.29F WCI  23

$$

ANZ530>537-132000-
MARINE OBSERVATIONS

STATION/POSITION TIME  TEMP    WIND        PRES
                       AIR SEA DIR/SP/G
                 (UTC) (F)     (DEG/KT/KT) (MB)
THOMAS PT LIGHT  1900   20 36  290/ 20/ 23 1024.9R
BALT KEY BRIDGE  1800   19     280/ 26/ 31 1023.3S
COVE POINT       1800   20     330/ 23/ 30 1024.7F
LEWISETTA        1800   23 36  320/ 22/ 28 1024.3R
SOLOMONS ISLAND  1800   23 38  330/ 20/ 26   N/A
PINEY POINT      1800          340/ 26/ 29   N/A

$$




USA.gov is the U.S. government's official web portal to all federal, state and local government web resources and services.